Home   Weather   Campbelltown   Past weeks
Flag for Australia

Past Weather in Campbelltown, New South Wales, Australia — Yesterday and Last 2 Weeks

Now
66 °F

Mild.


Feels Like: 66 °F
Forecast: 81 / 55 °F
Wind: 3 mph from Southeast

Location: Camden Airport

Current Time: Oct 15, 2019 at 10:47:02 pm

Latest Report: Oct 15, 2019 at 9:00 pm


Visibility: N/A

Pressure: 29.87 "Hg

Humidity: 76%

Dew Point: 59 °F

Location of CampbelltownLocation

Past Weather in Campbelltown — Graph

°F

Campbelltown Temperature Yesterday

Maximum temperature yesterday: 78 °F (at 4:00 pm)
Minimum temperature yesterday: 44 °F (at 6:00 am)
Average temperature yesterday: 60 °F

High & Low Weather Summary for the Past Weeks

 TemperatureHumidityPressure
High91 °F (Oct 4, 2:00 pm)100% (Oct 4, 6:00 am)30.47 "Hg (Oct 4, 6:00 am)
Low43 °F (Oct 2, 6:00 am)10% (Oct 4, 2:00 pm)29.78 "Hg (Oct 15, 4:00 pm)
Average61 °F69%30.10 "Hg
* Reported Sep 30 8:00 pm — Oct 15 9:00 pm, Campbelltown. Weather by CustomWeather, © 2019

Note: Actual official high and low records may vary slightly from our data, if they occured in-between our weather recording intervals... More about our weather records

Advertising

Campbelltown Weather History for the Previous 24 Hours

Scroll right to see more
 ConditionsComfort  
Time TempWeatherWind HumidityBarometerVisibility
9:00 pm
Tue, Oct 15
66 °FMild.3 mph76%29.87 "HgN/A
7:00 pm72 °FMild.7 mph49%29.81 "HgN/A
6:00 pm76 °FMild.14 mph38%29.79 "HgN/A
4:00 pm82 °FPleasantly warm.12 mph35%29.78 "HgN/A
3:00 pm82 °FPleasantly warm.14 mph34%29.78 "HgN/A
1:00 pm80 °FPleasantly warm.13 mph34%29.85 "HgN/A
12:00 pm78 °FPleasantly warm.14 mph31%29.87 "HgN/A
10:00 am68 °FMild.2 mph61%29.93 "HgN/A
9:00 am61 °FScattered clouds.2 mph80%29.93 "HgN/A
7:00 am51 °FCool.No wind99%29.93 "HgN/A
6:00 am51 °FPassing clouds.No wind99%29.92 "HgN/A
4:00 am53 °FCool.No wind99%29.91 "HgN/A
3:00 am53 °FCool.No wind96%29.92 "HgN/A
1:00 am56 °FCool.No wind90%29.95 "HgN/A
12:00 am58 °FPassing clouds.5 mph84%29.96 "HgN/A
10:00 pm
Mon, Oct 14
62 °FCool.6 mph72%29.96 "HgN/A
Weather by CustomWeather, © 2019

See weather overview